Regional Weather Roundup
Issued by NWS Wakefield, VA

Home | Current Version | Previous Version | Text Only | Print | Product List | Glossary On
Versions: 1 2 3 4 5 6 7 8 9 10 11 12 13 14 15 16 17 18 19 20 21 22 23 24 25 26 27 28 29 30 31 32 33 34 35 36 37 38 39 40 41 42 43 44 45 46 47 48 49 50
000
ASUS41 KAKQ 290810
RWRAKQ

REGIONAL WEATHER ROUNDUP
NATIONAL WEATHER SERVICE WAKEFIELD VA
300 AM EST THU JAN 29 2015

Note: "fair" indicates few or no clouds below 12,000 feet with no
significant weather and/or obstructions to visibility. * = Denotes
station may not report precipitation (e.g., rain,snow,etc.),
thunder or fog.

VAZ042-051-052>054-056-290900-
NORTHERN VIRGINIA

CITY           SKY/WX    TMP DP  RH WIND       PRES   REMARKS
WASH NATIONAL  CLEAR     28   9  44 N5        30.34F
DULLES         PTCLDY    16  10  77 CALM      30.33F
FORT BELVOIR   CLEAR     18  13  80 S1        30.35S
QUANTICO       CLEAR     22  13  68 NW6       30.36F
FREDERICKSBRG* CLEAR     21  15  76 CALM      30.34S
STAFFORD*      CLEAR     17  12  80 CALM      30.38S
WARRENTON      CLEAR     16  16 100 CALM      30.32F
CULPEPER*      CLEAR     16  12  86 CALM      30.33S
MANASSAS*      CLEAR     16  14  93 CALM      30.34F
LEESBURG*      PTCLDY    19  12  73 NW3       30.33F
WINCHESTER     CLEAR     19   7  58 CALM      30.31S
FRONT ROYAL*   FAIR      18  12  79 CALM      30.30S
LURAY*         FAIR      19  18  93 SW5       30.31R
$$

VAZ048-049-060>072-079>083-290900-
CENTRAL AND SOUTH CENTRAL VIRGINIA

CITY           SKY/WX    TMP DP  RH WIND       PRES   REMARKS
RICHMOND       CLEAR     27   7  42 CALM      30.34S
CHESTERFIELD*  FAIR      18   1  49 CALM      30.35S
PETERSBURG*    CLEAR     18  15  89 CALM      30.35S
HANOVER        CLEAR     20  11  68 CALM      30.36R
TAPPAHANNOCK*  CLEAR     19  12  74 CALM      30.35S
QUINTON*       FAIR      21  12  68 CALM      30.35S
CHARLOTTSVILLE CLEAR     20  10  65 SW3       30.33R
GORDONSVILLE*  FAIR      15  13  91 CALM      30.33R
ORANGE*        CLEAR     18  14  86 S3        30.34S
LOUISA*        CLEAR     18   7  62 CALM      30.32R
BUMPASS*       FAIR      19  13  77 CALM      30.33S
FARMVILLE*     CLEAR     18  12  77 CALM      30.33S
CREWE*         FAIR      19  15  83 CALM      30.33S
FORT PICKETT*  FAIR      21  16  81 CALM      30.32F
CHASE CITY*    FAIR      26  20  77 CALM      30.34R
CLARKSVILLE*   FAIR      23  19  86 CALM      30.33S
SOUTH HILL*    CLEAR     20  13  73 CALM      30.39S
LAWRENCEVILLE* FAIR      21  17  83 CALM      30.33S
EMPORIA*       CLEAR     19  16  86 CALM      30.36S
$$

VAZ088>098-290900-
SOUTHEAST VIRGINIA

CITY           SKY/WX    TMP DP  RH WIND       PRES   REMARKS
NORFOLK        CLEAR     32  15  49 VRB5      30.33S
VIRGINIA BEACH CLEAR     28  15  58 W3        30.32S
NORFOLK NAVAL  CLEAR     32  13  45 NW9       30.35S
WEST POINT*    CLEAR     19  13  77 CALM      30.37S
SALUDA*        FAIR      29  12  47 NW7       30.34S
NEWPORT NEWS   CLEAR     29  13  51 CALM      30.34S
LANGLEY AFB    CLEAR     23  15  71 W6        30.34S
FORT EUSTIS    CLEAR     29  15  55 N3        30.33R
WILLIAMSBURG*    N/A     27  12  54 N3        30.35S
HR EXEC AP*    FAIR      18  12  79 CALM      30.36S
FRANKLIN*      CLEAR     21  12  68 CALM      30.35S
WAKEFIELD      CLEAR     20  13  74 CALM      30.35S
$$

VAZ020-022-025-037-045-290900-
WEST CENTRAL AND SOUTHWEST VIRGINIA

CITY           SKY/WX    TMP DP  RH WIND       PRES   REMARKS
STAUNTON*      PTCLDY    18  13  84 CALM      30.31S
WAYNESBORO*    FAIR      16  10  78 CALM      30.29R
HOT SPRINGS VA PTCLDY    27   7  43 S10       30.12F WCI  17
LYNCHBURG      CLEAR     20  10  65 CALM      30.32S
DANVILLE       CLEAR     21  15  78 CALM      30.34R
SOUTH BOSTON*  FAIR      21  15  79 CALM      30.34S
MARTINSVILLE   PTCLDY    20  16  84 CALM      30.33F
ROANOKE        CLEAR     24  15  68 CALM      30.30F
BLACKSBURG     PTCLDY    20  13  75 CALM      30.27F
DUBLIN*        PTCLDY    22  19  89 CALM      30.25F
MARION*        PTCLDY    24  18  77 E3        30.23S
HILLSVILLE*    PTCLDY    28  16  59 S8        30.20F
RICHLANDS*     FAIR      33   8  35 SE5       30.14S
WISE*          MOCLDY    34  12  40 S7        30.16S
ABINGDON*      PTCLDY    31  20  64 E5        30.19S
$$

MDZ021>025-VAZ099-100-290900-
SOUTHERN MARYLAND AND THE DELMARVA PENINSULA

CITY           SKY/WX    TMP DP  RH WIND       PRES   REMARKS
PATUXENT RIVER CLEAR     21  10  62 W7        30.34R
BAY BRIDGE APT   N/A     28  10  47 NW6       30.34R
LEONARDTOWN    CLEAR     21  10  63 W5        30.35R
DOVER          CLEAR     21   9  61 W2        30.32S
GEORGETOWN     CLEAR     20  11  68 CALM      30.31F
EASTON         CLEAR     24  17  73 CALM      30.36S
CAMBRIDGE      CLEAR     28  16  59 CALM      30.32S
SALISBURY      CLEAR     22  13  68 CALM      30.32R
OCEAN CITY     CLEAR     23  10  57 N6        30.31F
WALLOPS ISLAND CLEAR     24  11  57 NW7       30.32S
ACCOMACK*      CLEAR     30  12  47 N5        30.32S
$$

NCZ012>017-030>032-290900-
NORTH CENTRAL AND EASTERN NORTH CAROLINA

CITY           SKY/WX    TMP DP  RH WIND       PRES   REMARKS
ROANOKE RAPIDS FAIR      21  19  93 CALM      30.34S
RALEIGH        PTCLDY    23  16  74 CALM      30.34R
ELIZABETH CITY CLEAR     24  13  62 W5        30.33F
AHOSKIE*       CLEAR     22  12  65 CALM      30.35S
EDENTON*       CLEAR     24  16  72 N3        30.34F
CURRITUCK*     CLEAR     27  15  60 CALM      30.33F
KILL DEVIL HLS CLEAR     33  17  52 N5        30.30F
MANTEO         CLEAR     32  19  59 N10       30.32S WCI  24
CAPE HATTERAS  CLEAR     34  23  64 VRB6      30.31S
TARBORO*       FAIR      21  19  93 CALM      30.36S
GOLDSBORO      CLEAR     24  23  97 CALM      30.34R
WASHINGTON     CLEAR     26  13  57 CALM      30.34S
GREENVILLE     CLEAR     23  19  86 CALM      30.35S
NEW BERN       CLEAR     27  19  72 CALM      30.35F
WILMINGTON     CLEAR     25  21  85 CALM      30.34S
$$

VAZ048-290900-
ELSEWHERE

CITY           SKY/WX    TMP DP  RH WIND       PRES   REMARKS
HARRISBURG PA  PTCLDY    16   7  67 NW8       30.31F
BALTIMORE      CLEAR     21   6  52 W5        30.33R
ANNAPOLIS      CLEAR     26   8  46 NW5       30.33S
ANDREWS AFB    CLEAR     24   8  49 CALM      30.32S
PHILADELPHIA   PTCLDY    24   3  40 N7        30.32S
HENDERSON NC   CLEAR     28  12  50 CALM      30.33S
GREENSBORO     CLEAR     28  16  60 CALM      30.29F
ROCKY MOUNT    CLEAR     24  18  77 CALM      30.35S
$$

VAZ100-290900-
MARINE

STATION/POSITION TIME  TEMP    WIND        PRES    WAVE   SWELL
                       AIR SEA DIR/SP/G            HT/PER HT/PER
                 (UTC) (F)     (DEG/KT/KT) (MB)    (FT/S) (FT/S)
BRANDYWINE LGT   0700   30      10/ 15/ 18 1026.6R
CAPE MAY NJ      0800   28 35   10/  5/ 11 1026.1F
LEWES DE         0800   31 34   20/ 12/ 15 1026.3F
15NM E FENWICK I 0800   32 40              1025.6R   5/13
OCEAN-CITY-INLET 0800   28 37   10/  9/ 11 1025.9F
WACHAPREAGUE VA  0800   28 36   10/  2/  3 1026.7S
THOMAS POINT MD  0800   27 35  310/ 11/ 12 1028.1R
COVE POINT MD    0800   28     320/  6/  8 1026.9R
SOLOMONS ISLAND  0800      37                N/A
BISHOPS HEAD MD  0800   25 32  330/  5/  6 1026.4R
PINEY POINT MD   0800          350/ 12/ 13   N/A
CAMBRIDGE MD     0800   29 35  280/  4/  5 1026.9R
LEWISETTA VA     0800   30 35  310/  5/  6 1027.3S
RAPPAHANNOCK LGT 0800          360/ 16/ 18 1027.3R
YORK RVR RNG VA  0800   31     330/  9/ 11 1026.7R
YORKTOWN VA      0800   31 40  330/  8/ 10 1027.2S
DOMINION TERM VA 0800   31      60/  1/  3 1027.2F
KIPTOPEKE VA     0800      42   10/  3/  4   N/A
CHES BAY BRIDGE  0800   34 40  340/ 13/ 14 1026.4F
CAPE HENRY VA    0800   34      10/ 16/ 19 1025.3S
CHESAPEAKE LGHT  0700   34      10/ 18/ 21 1027.0R
WILLOUBY STN VA  0800   31     340/  9/ 10 1027.5F
S CRANEY ISL VA  0800          350/  9/ 12 1027.1S
CAPE HENRY BUOY  0700      42                N/A     5/ 7   2/11
CAPE CHARLES BUO 0700      41                N/A     4/ 6   2/ 7
OFFSHORE WE BUOY 0700      44                N/A     6/ 7   3/13
64NM E OF VA BCH 0800   37 50  360/ 14/ 17 1025.0R   6/ 8   5/ 8
DUCK PIER NC     0800   35 42   10/ 14/ 17 1025.6S
44100 DUCK FRF   0800      45                N/A     6/ 6   2/12
44056 DUCK FRF   0800      42                N/A     5/13   2/13
OREGON INLET NC  0800   34 43  350/ 10/ 13 1026.4F
HATTERAS NC      0800   36 43  350/ 15/ 18 1026.5S
DIAMOND SHLS NC  0800   40 71  340/ 17/ 19 1025.5F   6/ 9   5/ 9
CAPE LOOKOUT NC  0700   37     350/ 11/ 14 1027.0R
$$


USA.gov is the U.S. government's official web portal to all federal, state and local government web resources and services.